User: anonymous   Login
Location: Unspecified
(0.0000°N, 0.0000°E)
Time: 01:55:26
(UTC+00:00)
Language:

STARLINK-4217 - Orbit

View from above orbital plane
View from above orbital plane
View from above satellite
View from above satellite

Ground track
Ground track

The orbit is defined by the following mean orbital elements,

1 52999U          26145.31442799 +.00000000 +00000-0 +12397-3 0 00009
2 52999  53.2144 110.1370 0001269  75.6695 284.4438 15.08844906    02
Epoch (UTC): 25 May 2026 07:32:46
Eccentricity: 0.0001269
inclination: 53.2144°
perigee height: 539 km
apogee height: 541 km
right ascension of ascending node: 110.1370°
argument of perigee: 75.6695°
revolutions per day: 15.08844906
mean anomaly at epoch: 284.4438°

The dashed part of the orbit path shows where the satellite is in the earth's shadow,  

DLR